When you browse on this site, cookies collect data to enhance your experience and personalize the content and advertising you see.
Visit our Privacy Policy to learn more. By continuing to use the site, you agree to this use of cookies and data.
  • In Schweiz
  • Länderverzeichnis
  • Für 7 Tage
  • Wassertemperatur
  • Wetterkarte
  • Widgets
  • user-avatar
    Anmelden

    Stündliche Wetter Chamonix

    Heute, 3 Juni, Mittwoch

    Zeit Temperatur Niederschläge Wind Luftdruck Luftfeuchtigkeit
    00:00 +10°C° 0 mm 1 m/S 650 mmHg 92%
    01:00 +9°C° 0 mm 1 m/S 649 mmHg 92%
    02:00 +9°C° 0 mm 1 m/S 649 mmHg 93%
    03:00 +9°C° 0 mm 1 m/S 648 mmHg 93%
    04:00 +10°C° 0 mm 1 m/S 648 mmHg 89%
    05:00 +11°C° 0 mm 0 m/S 649 mmHg 86%
    06:00 +12°C° 0 mm 0 m/S 649 mmHg 83%
    07:00 +15°C° 0 mm 1 m/S 649 mmHg 73%
    08:00 +18°C° 0 mm 1 m/S 649 mmHg 63%
    09:00 +20°C° 0 mm 1 m/S 650 mmHg 53%
    10:00 +19°C° 0 mm 2 m/S 649 mmHg 49%
    11:00 +20°C° 0 mm 2 m/S 649 mmHg 45%
    12:00 +21°C° 0 mm 2 m/S 649 mmHg 41%
    13:00 +20°C° 0.6 mm 2 m/S 648 mmHg 50%
    14:00 +19°C° 0.6 mm 2 m/S 648 mmHg 59%
    15:00 +18°C° 0.6 mm 2 m/S 647 mmHg 69%
    16:00 +17°C° 1.2 mm 2 m/S 646 mmHg 75%
    17:00 +16°C° 1.2 mm 1 m/S 646 mmHg 82%
    18:00 +14°C° 1.2 mm 1 m/S 645 mmHg 89%
    19:00 +14°C° 0.4 mm 1 m/S 645 mmHg 90%
    20:00 +13°C° 0.4 mm 1 m/S 645 mmHg 90%
    21:00 +12°C° 0.4 mm 1 m/S 645 mmHg 91%
    22:00 +12°C° 0 mm 1 m/S 645 mmHg 91%
    23:00 +11°C° 0 mm 1 m/S 644 mmHg 91%

    Morgen, 4 Juni, Donnerstag

    Zeit Temperatur Niederschläge Wind Luftdruck Luftfeuchtigkeit
    00:00 +11°C° 0 mm 1 m/S 644 mmHg 91%
    01:00 +10°C° 0 mm 1 m/S 643 mmHg 90%
    02:00 +10°C° 0 mm 1 m/S 643 mmHg 90%
    03:00 +10°C° 0 mm 1 m/S 642 mmHg 89%
    04:00 +10°C° 0.3 mm 1 m/S 642 mmHg 89%
    05:00 +11°C° 0.3 mm 1 m/S 642 mmHg 89%
    06:00 +10°C° 0.3 mm 0 m/S 642 mmHg 90%
    07:00 +11°C° 1.4 mm 1 m/S 642 mmHg 92%
    08:00 +11°C° 1.4 mm 1 m/S 641 mmHg 94%
    09:00 +11°C° 1.4 mm 1 m/S 641 mmHg 96%
    10:00 +10°C° 2.4 mm 1 m/S 641 mmHg 97%
    11:00 +10°C° 2.4 mm 1 m/S 641 mmHg 97%
    12:00 +9°C° 2.4 mm 1 m/S 641 mmHg 97%
    13:00 +9°C° 1.3 mm 1 m/S 641 mmHg 97%
    14:00 +9°C° 1.3 mm 1 m/S 640 mmHg 97%
    15:00 +9°C° 1.3 mm 1 m/S 640 mmHg 97%
    16:00 +10°C° 0.4 mm 1 m/S 640 mmHg 96%
    17:00 +10°C° 0.4 mm 1 m/S 640 mmHg 96%
    18:00 +10°C° 0.4 mm 1 m/S 640 mmHg 95%
    19:00 +9°C° 0.1 mm 1 m/S 640 mmHg 95%
    20:00 +9°C° 0.1 mm 1 m/S 640 mmHg 95%
    21:00 +8°C° 0.1 mm 1 m/S 640 mmHg 95%
    22:00 +8°C° 0.1 mm 1 m/S 640 mmHg 95%
    23:00 +8°C° 0.1 mm 1 m/S 640 mmHg 96%

    übermorgen, 5 Juni, Freitag

    Zeit Temperatur Niederschläge Wind Luftdruck Luftfeuchtigkeit
    00:00 +8°C° 0.1 mm 1 m/S 640 mmHg 97%
    01:00 +8°C° 0.8 mm 1 m/S 640 mmHg 97%
    02:00 +8°C° 0.8 mm 1 m/S 640 mmHg 98%
    03:00 +7°C° 0.8 mm 2 m/S 640 mmHg 99%
    04:00 +7°C° 1 mm 2 m/S 641 mmHg 98%
    05:00 +7°C° 1 mm 2 m/S 641 mmHg 98%
    06:00 +7°C° 1 mm 2 m/S 641 mmHg 98%
    07:00 +7°C° 0.4 mm 2 m/S 642 mmHg 95%
    08:00 +8°C° 0.4 mm 2 m/S 642 mmHg 93%
    09:00 +9°C° 0.4 mm 2 m/S 643 mmHg 90%
    10:00 +9°C° 0.3 mm 2 m/S 643 mmHg 87%
    11:00 +10°C° 0.3 mm 2 m/S 643 mmHg 83%
    12:00 +10°C° 0.3 mm 2 m/S 644 mmHg 80%
    13:00 +10°C° 0.1 mm 2 m/S 644 mmHg 77%
    14:00 +12°C° 0.1 mm 2 m/S 644 mmHg 75%
    15:00 +12°C° 0.1 mm 2 m/S 644 mmHg 72%
    16:00 +10°C° 0.1 mm 2 m/S 644 mmHg 75%
    17:00 +10°C° 0.1 mm 2 m/S 645 mmHg 77%
    18:00 +9°C° 0.1 mm 2 m/S 645 mmHg 80%
    19:00 +10°C° 0 mm 1 m/S 645 mmHg 82%
    20:00 +9°C° 0 mm 1 m/S 645 mmHg 83%
    21:00 +8°C° 0 mm 1 m/S 646 mmHg 85%
    22:00 +8°C° 0 mm 1 m/S 646 mmHg 84%
    23:00 +8°C° 0 mm 1 m/S 646 mmHg 83%

    6 Juni, Samstag

    Zeit Temperatur Niederschläge Wind Luftdruck Luftfeuchtigkeit
    00:00 +7°C° 0 mm 1 m/S 646 mmHg 82%
    01:00 +7°C° 0 mm 1 m/S 646 mmHg 83%
    02:00 +7°C° 0 mm 1 m/S 646 mmHg 83%
    03:00 +7°C° 0 mm 1 m/S 646 mmHg 84%
    04:00 +8°C° 0 mm 1 m/S 646 mmHg 82%
    05:00 +9°C° 0 mm 1 m/S 646 mmHg 80%
    06:00 +10°C° 0 mm 1 m/S 647 mmHg 78%
    07:00 +12°C° 0 mm 1 m/S 647 mmHg 74%
    08:00 +13°C° 0 mm 1 m/S 648 mmHg 70%
    09:00 +15°C° 0 mm 2 m/S 648 mmHg 66%
    10:00 +15°C° 0 mm 2 m/S 648 mmHg 64%
    11:00 +16°C° 0 mm 2 m/S 648 mmHg 62%
    12:00 +17°C° 0 mm 2 m/S 648 mmHg 60%
    13:00 +17°C° 0.3 mm 2 m/S 648 mmHg 63%
    14:00 +16°C° 0.3 mm 2 m/S 648 mmHg 67%
    15:00 +16°C° 0.3 mm 2 m/S 648 mmHg 70%
    16:00 +15°C° 0.7 mm 2 m/S 647 mmHg 77%
    17:00 +14°C° 0.7 mm 1 m/S 647 mmHg 84%
    18:00 +14°C° 0.7 mm 1 m/S 647 mmHg 91%
    19:00 +12°C° 0.3 mm 1 m/S 647 mmHg 92%
    20:00 +11°C° 0.3 mm 1 m/S 647 mmHg 93%
    21:00 +10°C° 0.3 mm 1 m/S 647 mmHg 95%
    22:00 +10°C° 0.3 mm 1 m/S 647 mmHg 95%
    23:00 +10°C° 0.3 mm 1 m/S 647 mmHg 95%

    7 Juni, Sonntag

    Zeit Temperatur Niederschläge Wind Luftdruck Luftfeuchtigkeit
    00:00 +10°C° 0.3 mm 1 m/S 647 mmHg 95%
    01:00 +9°C° 0.3 mm 1 m/S 647 mmHg 95%
    02:00 +9°C° 0.3 mm 1 m/S 646 mmHg 95%
    03:00 +8°C° 0.3 mm 1 m/S 646 mmHg 95%
    04:00 +9°C° 0.1 mm 1 m/S 646 mmHg 93%
    05:00 +10°C° 0.1 mm 1 m/S 647 mmHg 92%
    06:00 +11°C° 0.1 mm 1 m/S 647 mmHg 91%
    07:00 +12°C° 0.9 mm 1 m/S 648 mmHg 92%
    08:00 +12°C° 0.9 mm 1 m/S 648 mmHg 92%
    09:00 +12°C° 0.9 mm 2 m/S 648 mmHg 93%
    10:00 +12°C° 0.8 mm 1 m/S 648 mmHg 92%
    11:00 +12°C° 0.8 mm 1 m/S 648 mmHg 92%
    12:00 +12°C° 0.8 mm 1 m/S 648 mmHg 91%
    13:00 +12°C° 0.4 mm 1 m/S 648 mmHg 91%
    14:00 +12°C° 0.4 mm 2 m/S 648 mmHg 91%
    15:00 +12°C° 0.4 mm 2 m/S 648 mmHg 91%
    16:00 +10°C° 0.3 mm 2 m/S 648 mmHg 92%
    17:00 +10°C° 0.3 mm 2 m/S 648 mmHg 93%
    18:00 +10°C° 0.3 mm 1 m/S 648 mmHg 94%
    19:00 +10°C° 0 mm 1 m/S 648 mmHg 95%
    20:00 +9°C° 0 mm 1 m/S 648 mmHg 95%
    21:00 +9°C° 0 mm 1 m/S 649 mmHg 96%
    22:00 +8°C° 0 mm 1 m/S 649 mmHg 96%
    23:00 +8°C° 0 mm 1 m/S 649 mmHg 96%

    8 Juni, Montag

    Zeit Temperatur Niederschläge Wind Luftdruck Luftfeuchtigkeit
    00:00 +8°C° 0 mm 1 m/S 649 mmHg 96%
    01:00 +7°C° 0 mm 1 m/S 648 mmHg 96%
    02:00 +7°C° 0 mm 1 m/S 648 mmHg 96%
    03:00 +7°C° 0 mm 1 m/S 648 mmHg 96%
    04:00 +7°C° 0 mm 1 m/S 648 mmHg 94%
    05:00 +7°C° 0 mm 1 m/S 648 mmHg 92%
    06:00 +7°C° 0 mm 1 m/S 648 mmHg 90%
    07:00 +9°C° 0 mm 1 m/S 649 mmHg 84%
    08:00 +10°C° 0 mm 1 m/S 649 mmHg 77%
    09:00 +11°C° 0 mm 1 m/S 649 mmHg 71%
    10:00 +10°C° 0 mm 2 m/S 649 mmHg 68%
    11:00 +12°C° 0 mm 2 m/S 649 mmHg 66%
    12:00 +12°C° 0 mm 2 m/S 650 mmHg 64%
    13:00 +12°C° 0 mm 2 m/S 650 mmHg 63%
    14:00 +12°C° 0 mm 2 m/S 649 mmHg 62%
    15:00 +12°C° 0 mm 2 m/S 649 mmHg 61%
    16:00 +12°C° 0 mm 2 m/S 649 mmHg 65%
    17:00 +10°C° 0 mm 2 m/S 649 mmHg 68%
    18:00 +10°C° 0 mm 2 m/S 649 mmHg 72%
    19:00 +9°C° 0 mm 1 m/S 649 mmHg 78%
    20:00 +7°C° 0 mm 1 m/S 650 mmHg 84%
    21:00 +6°C° 0 mm 1 m/S 650 mmHg 91%
    22:00 +6°C° 0 mm 1 m/S 650 mmHg 91%
    23:00 +5°C° 0 mm 1 m/S 650 mmHg 92%
    Mehr zeigen